Stations météo

réclame
Mon MeteoGroup
Ölands Södra Udde, Suède (2644): Température de l'air & dewpoint: 09.08.2018 01:00:00 - 15.08.2018 01:00:00 (CEST)Ölands Södra Udde, Suède (2644): Vitesse du vent & gusts: 09.08.2018 01:00:00 - 15.08.2018 01:00:00 (CEST)Ölands Södra Udde, Suède (2644): Direction du vent: 09.08.2018 01:00:00 - 15.08.2018 01:00:00 (CEST)Ölands Södra Udde, Suède (2644): reduced air pressure: 09.08.2018 01:00:00 - 15.08.2018 01:00:00 (CEST)Ölands Södra Udde, Suède (2644): visibility: 09.08.2018 01:00:00 - 15.08.2018 01:00:00 (CEST)Ölands Södra Udde, Suède (2644): Quantités de précipitations: 09.08.2018 01:00:00 - 15.08.2018 01:00:00 (CEST)
Date & Time tt [°C] td [°C] ff [km/h] ff [knt] fx [km/h] fx [knt] dd ppp [hPa] vv [km] rr [mm]
15.08.2018 01:00:00 - - - - - - - - - -
15.08.2018 00:00:00 18,2 16,7 18 10 30 16 W 1006,2 46 0,0
14.08.2018 23:00:00 18,4 16,9 23 12 30 16 W 1006,0 35 0,0
14.08.2018 22:00:00 18,1 17,1 15 8 31 17 WSW 1006,0 11 0,0
14.08.2018 21:00:00 18,6 17,3 21 12 32 18 SW 1006,0 15 0,0
14.08.2018 20:00:00 18,8 17,5 20 11 34 19 SW 1005,6 12 0,0
14.08.2018 19:00:00 19,0 17,3 21 12 35 19 SW 1005,5 16 0,0
14.08.2018 18:00:00 19,7 17,3 26 14 37 20 SW 1005,8 19 0,0
14.08.2018 17:00:00 20,3 17,3 23 12 37 20 WSW 1005,8 10 0,0
14.08.2018 16:00:00 20,5 17,3 24 13 33 18 SW 1005,7 14 0,0
14.08.2018 15:00:00 21,3 17,1 18 10 32 17 SW 1005,6 26 0,0
14.08.2018 14:00:00 21,1 18,1 15 8 29 16 SW 1005,6 20 0,0
14.08.2018 13:00:00 22,1 18,9 12 7 22 12 SW 1005,4 20 0,0
14.08.2018 12:00:00 18,8 17,3 16 8 30 16 SE 1005,1 14 0,0
14.08.2018 11:00:00 18,3 17,3 19 10 36 20 ESE 1005,3 13 0,0
14.08.2018 10:00:00 17,9 16,9 23 12 36 20 E 1005,6 20 0,0
14.08.2018 09:00:00 17,6 17,0 28 15 36 19 E 1005,8 20 0,4
14.08.2018 08:00:00 17,5 16,9 23 13 28 15 E 1006,1 13 0,1
14.08.2018 07:00:00 17,4 16,8 24 13 29 16 E 1006,4 21 0,0
14.08.2018 06:00:00 17,2 16,6 21 12 29 16 E 1006,6 15 0,0
14.08.2018 05:00:00 17,2 16,6 22 12 26 14 E 1007,1 22 0,0
14.08.2018 04:00:00 16,8 16,3 18 10 21 11 E 1007,8 16 0,0
14.08.2018 03:00:00 17,1 16,6 17 9 20 11 E 1008,2 8 0,1
14.08.2018 02:00:00 17,1 16,5 14 8 17 9 E 1008,5 11 0,2
14.08.2018 01:00:00 16,8 16,2 9 5 21 12 ESE 1009,3 22 0,0
14.08.2018 00:00:00 17,1 16,3 16 8 21 12 E 1009,0 24 0,0
13.08.2018 23:00:00 17,0 16,2 16 9 21 11 E 1008,9 33 0,0
13.08.2018 22:00:00 16,9 15,9 16 9 20 11 E 1009,3 50 0,0
13.08.2018 21:00:00 16,5 15,5 15 8 20 11 E 1009,6 50 0,0
13.08.2018 20:00:00 16,6 15,3 16 9 19 10 E 1009,6 50 0,0
13.08.2018 19:00:00 16,6 15,1 11 6 16 8 E 1009,9 50 0,0
13.08.2018 18:00:00 16,9 14,9 12 6 16 8 E 1010,2 50 0,0
13.08.2018 17:00:00 16,3 14,5 13 7 16 9 ESE 1010,7 32 0,0
13.08.2018 16:00:00 17,2 14,7 11 6 17 9 ESE 1010,6 42 0,0
13.08.2018 15:00:00 17,2 13,7 14 7 17 9 E 1010,6 43 0,0
13.08.2018 14:00:00 16,2 13,3 12 7 16 9 E 1010,9 50 0,0
13.08.2018 13:00:00 15,5 13,2 8 5 16 9 SE 1011,0 31 0,0
13.08.2018 12:00:00 16,0 13,8 11 6 16 9 E 1011,1 40 0,0
13.08.2018 11:00:00 15,3 13,1 12 7 16 8 ENE 1010,8 46 0,0
13.08.2018 10:00:00 15,1 13,5 13 7 15 8 ENE 1010,7 50 0,0
13.08.2018 09:00:00 15,4 12,7 5 3 9 5 NE 1010,6 50 0,0
13.08.2018 08:00:00 15,1 12,4 0 0 13 7 N 1010,7 50 0,0
13.08.2018 07:00:00 14,5 12,4 5 3 15 8 W 1010,7 43 0,1
13.08.2018 06:00:00 14,5 12,4 9 5 22 12 W 1010,8 47 0,0
13.08.2018 05:00:00 14,6 12,1 10 6 22 12 W 1010,9 50 0,0
13.08.2018 04:00:00 14,7 12,0 16 9 29 16 W 1011,0 50 0,0
13.08.2018 03:00:00 14,4 12,1 15 8 32 17 W 1011,3 45 0,0
13.08.2018 02:00:00 14,9 11,9 21 12 32 17 W 1011,4 44 0,0
13.08.2018 01:00:00 14,9 12,2 23 12 35 19 W 1011,3 41 0,0
13.08.2018 00:00:00 15,1 13,1 22 12 38 21 W 1011,6 49 0,0
12.08.2018 23:00:00 15,2 12,9 29 15 46 25 WSW 1011,7 24 0,0
12.08.2018 22:00:00 16,0 11,8 34 18 48 26 WSW 1012,0 48 0,0
12.08.2018 21:00:00 16,7 11,8 32 18 48 26 WSW 1011,9 50 0,0
12.08.2018 20:00:00 17,6 11,4 36 19 48 26 WSW 1011,6 50 0,0
12.08.2018 19:00:00 18,0 11,8 30 16 48 26 WSW 1011,3 47 0,0
12.08.2018 18:00:00 18,3 11,8 34 18 51 28 WSW 1011,4 50 0,0
12.08.2018 17:00:00 18,9 12,6 34 18 56 31 WSW 1011,5 35 0,0
12.08.2018 16:00:00 19,0 12,5 39 21 59 32 WSW 1011,4 31 0,0
12.08.2018 15:00:00 18,3 12,7 37 20 59 32 WSW 1011,5 41 0,0
12.08.2018 14:00:00 17,9 10,3 34 19 59 32 W 1011,7 46 0,0
12.08.2018 13:00:00 18,6 10,9 43 23 59 32 WSW 1011,6 44 0,0
12.08.2018 12:00:00 17,6 11,4 43 23 58 31 WSW 1011,5 32 0,0
12.08.2018 11:00:00 18,3 11,6 36 19 56 31 W 1011,4 34 0,0
12.08.2018 10:00:00 17,4 11,2 40 22 55 30 W 1011,3 28 0,0
12.08.2018 09:00:00 16,7 11,6 35 19 61 33 W 1011,1 32 0,0
12.08.2018 08:00:00 16,1 12,8 35 19 61 33 W 1010,6 26 0,0
12.08.2018 07:00:00 15,4 12,9 35 19 61 33 W 1010,2 29 0,0
12.08.2018 06:00:00 15,3 12,8 37 20 61 33 W 1009,7 33 0,0
12.08.2018 05:00:00 14,8 11,9 41 22 61 33 W 1009,4 48 0,0
12.08.2018 04:00:00 14,3 11,8 37 20 53 29 W 1009,2 50 0,0
12.08.2018 03:00:00 14,8 11,8 35 19 46 25 W 1009,2 50 0,0
12.08.2018 02:00:00 15,4 11,2 27 15 45 25 W 1009,2 50 0,0
12.08.2018 01:00:00 15,6 12,0 29 15 42 23 W 1009,3 50 0,0
12.08.2018 00:00:00 15,7 12,6 28 15 34 18 W 1009,2 50 0,0
11.08.2018 23:00:00 14,9 12,6 10 6 58 32 WSW 1009,5 50 0,2
11.08.2018 22:00:00 14,4 12,1 16 9 58 32 SW 1010,4 14 3,7
11.08.2018 21:00:00 17,1 10,5 18 10 52 28 SW 1011,0 50 0,0
11.08.2018 20:00:00 17,3 12,6 31 17 52 28 WSW 1011,7 37 -
11.08.2018 19:00:00 17,9 13,2 31 17 49 26 SW 1012,3 50 0,0
11.08.2018 18:00:00 17,6 13,3 31 17 72 39 WSW 1012,9 37 0,0
11.08.2018 17:00:00 18,6 13,9 23 12 72 39 WSW 1013,3 49 2,4
11.08.2018 16:00:00 20,1 13,1 36 19 46 25 S 1013,2 41 0,0
11.08.2018 15:00:00 22,0 14,6 33 18 41 22 SSE 1013,7 38 0,0
11.08.2018 14:00:00 20,6 14,0 29 16 36 19 SSE 1014,9 50 0,0
11.08.2018 13:00:00 20,4 14,7 25 14 40 21 S 1016,0 47 0,0
11.08.2018 12:00:00 21,3 16,0 29 15 42 23 S 1016,9 50 0,0
11.08.2018 11:00:00 21,5 15,6 34 19 42 23 S 1017,5 42 0,0
11.08.2018 10:00:00 21,6 14,3 31 17 36 19 SSW 1017,7 36 0,0
11.08.2018 09:00:00 21,3 14,7 20 11 32 17 SSW 1018,1 42 0,0
11.08.2018 08:00:00 19,9 14,0 16 9 32 17 SSW 1018,3 40 0,0
11.08.2018 07:00:00 19,6 13,5 22 12 33 18 SW 1018,7 49 0,0
11.08.2018 06:00:00 19,3 13,2 22 12 33 18 WSW 1018,8 50 0,0
11.08.2018 05:00:00 19,1 14,4 24 13 32 18 SW 1018,8 50 0,0
11.08.2018 04:00:00 18,8 12,5 21 11 35 19 SW 1019,2 50 0,0
11.08.2018 03:00:00 18,8 12,3 22 12 38 21 WSW 1019,4 50 0,0
11.08.2018 02:00:00 18,9 13,3 22 12 41 22 WSW 1019,5 50 0,0
11.08.2018 01:00:00 19,3 12,1 30 16 41 22 W 1019,7 50 0,0
11.08.2018 00:00:00 19,5 13,2 27 15 37 20 WSW 1019,5 50 0,0
10.08.2018 23:00:00 19,3 10,6 11 6 34 18 WSW 1019,2 50 0,0
10.08.2018 22:00:00 19,9 11,4 16 9 43 23 W 1018,8 50 0,0
10.08.2018 21:00:00 20,5 12,0 31 17 47 25 WSW 1018,2 50 0,0
10.08.2018 20:00:00 20,7 13,6 32 17 49 26 WSW 1017,3 49 0,0
10.08.2018 19:00:00 21,2 13,9 33 18 55 30 WSW 1016,5 43 0,0
10.08.2018 18:00:00 20,9 16,1 37 20 58 31 SW 1016,4 32 0,0
10.08.2018 17:00:00 21,1 15,4 42 23 58 31 SW 1016,1 35 0,0
10.08.2018 16:00:00 21,1 16,1 39 21 56 30 SW 1015,6 30 0,0
10.08.2018 15:00:00 21,4 16,6 37 20 56 30 SW 1015,2 27 0,0
10.08.2018 14:00:00 21,5 16,5 36 19 55 30 SW 1014,8 32 0,0
10.08.2018 13:00:00 22,1 16,4 39 21 55 30 SW 1014,0 29 0,0
10.08.2018 12:00:00 22,7 16,5 36 19 55 30 WSW 1013,3 37 0,0
10.08.2018 11:00:00 22,2 16,9 39 21 54 29 SW 1012,6 34 0,0
10.08.2018 10:00:00 22,2 17,1 38 20 54 29 WSW 1011,9 37 0,0
10.08.2018 09:00:00 22,5 18,9 34 19 47 25 SW 1010,9 28 0,0
10.08.2018 08:00:00 22,3 20,2 28 15 41 22 SSW 1010,3 29 0,0
10.08.2018 07:00:00 21,9 20,0 29 16 37 20 S 1009,7 18 0,0
10.08.2018 06:00:00 21,4 20,4 27 14 50 27 S 1009,2 11 0,0
10.08.2018 05:00:00 21,3 20,3 5 3 64 35 SW 1008,2 9 0,9
10.08.2018 04:00:00 23,4 20,3 42 23 64 35 SSW 1009,5 17 0,0
10.08.2018 03:00:00 23,1 20,6 33 18 40 21 SE 1008,5 20 0,0
10.08.2018 02:00:00 22,8 20,5 28 15 36 20 ESE 1009,3 28 0,0
10.08.2018 01:00:00 22,4 20,5 27 14 34 19 E 1010,8 16 0,0
10.08.2018 00:00:00 22,0 20,6 20 11 23 12 E 1011,7 11 0,0
09.08.2018 23:00:00 21,8 20,4 15 8 18 10 E 1012,8 10 0,0
09.08.2018 22:00:00 21,8 19,9 14 8 18 10 ESE 1013,4 15 0,0
09.08.2018 21:00:00 21,8 20,1 15 8 18 10 SE 1013,8 18 0,0
09.08.2018 20:00:00 22,0 19,5 14 8 17 9 SSE 1014,4 21 0,0
09.08.2018 19:00:00 22,8 19,2 11 6 19 10 S 1014,9 29 0,0
09.08.2018 18:00:00 23,2 19,1 14 8 26 14 S 1015,0 18 0,0
09.08.2018 17:00:00 23,9 19,0 13 7 27 14 SSW 1015,2 26 0,0
09.08.2018 16:00:00 24,4 18,8 19 10 27 14 SSW 1015,6 24 0,0
09.08.2018 15:00:00 25,0 18,9 13 7 21 11 SSW 1015,6 25 0,0
09.08.2018 14:00:00 25,8 19,2 11 6 23 12 SSW 1016,1 19 0,0
09.08.2018 13:00:00 24,6 20,5 16 9 23 12 SW 1016,0 17 0,0
09.08.2018 12:00:00 24,3 20,4 13 7 20 11 SW 1015,9 17 0,0
09.08.2018 11:00:00 23,7 20,2 16 9 20 11 WSW 1015,8 18 0,0
09.08.2018 10:00:00 23,0 19,6 16 9 20 11 WSW 1015,5 19 0,0
09.08.2018 09:00:00 22,3 19,5 10 5 15 8 WSW 1014,8 19 0,0
09.08.2018 08:00:00 22,8 19,8 10 6 19 11 WNW 1014,5 23 0,0
09.08.2018 07:00:00 22,0 19,4 9 5 20 11 NW 1014,0 22 0,0
09.08.2018 06:00:00 21,7 19,8 16 9 24 13 WNW 1013,4 18 0,0
09.08.2018 05:00:00 21,8 20,1 12 7 24 13 WSW 1012,9 22 0,0
09.08.2018 04:00:00 21,5 20,0 8 5 16 8 SW 1012,6 17 0,0
09.08.2018 03:00:00 21,1 19,9 7 4 19 10 S 1012,0 8 0,0
09.08.2018 02:00:00 21,6 20,2 10 6 19 10 WSW 1012,1 15 0,0
09.08.2018 01:00:00 21,7 20,2 11 6 17 9 SSW 1011,9 18 0,0

tt = Température de l'air
td = dewpoint
ff = Vitesse du vent
fx = gusts
dd = Direction du vent
ppp = reduced air pressure
vv = visibility
rr = Quantités de précipitations

stations d'obs. à proximité